Observations for Trim Market St
| Time | AQI | Temp °C | Hum % | Pres Pa | CO μg/m³ | H₂S μg/m³ | NO μg/m³ | NO₂ μg/m³ | O₃ μg/m³ | SO₂ μg/m³ | PM1 μg/m³ | PM2.5 μg/m³ | PM10 μg/m³ |
|---|---|---|---|---|---|---|---|---|---|---|---|---|---|
| Friday 21 August 2026 | |||||||||||||
| 19:29 | 3 | 19.4 | 57 | 57,229 | 0.02 | 0 | 1.41 | 28.1 | 57.52 | 0 | 0 | 1.66 | 1.89 |
| 19:28 | 3 | 19.4 | 57 | 57,250 | 0.01 | 0 | 1.31 | 17.69 | 66.88 | 0 | 0 | 1.66 | 1.88 |
| 19:27 | 3 | 19.3 | 57 | 57,265 | 0.02 | 0 | 1.26 | 25.97 | 59.03 | 0 | 0.71 | 2.67 | 3.29 |
| 19:25 | 3 | 19.4 | 56 | 57,204 | 0.13 | 0 | 1.3 | 29.17 | 58.94 | 0 | 0 | 1.67 | 1.87 |
| 19:24 | 3 | 19.3 | 56 | 57,161 | 0.39 | 0 | 1.35 | 27.03 | 56.46 | 0 | 0 | 1.67 | 2.57 |
| 19:23 | 3 | 19.4 | 56 | 57,109 | 0.15 | 0 | 1.43 | 33.53 | 48.9 | 0 | 0 | 1.68 | 1.86 |
| 19:21 | 3 | 19.4 | 56 | 56,996 | 0.08 | 0 | 1.44 | 27.32 | 58.35 | 0 | 0 | 1.69 | 1.85 |
| 19:18 | 3 | 19.5 | 56 | 56,786 | 0 | 0 | 1.43 | 24.98 | 59.21 | 0 | 0 | 1.71 | 1.83 |
| 19:14 | 3 | 19.6 | 55 | 56,648 | 0.2 | 0 | 1.85 | 30.8 | 62.32 | 0 | 0 | 1.72 | 1.81 |
| 19:11 | 3 | 19.6 | 55 | 56,573 | 0.05 | 0 | 2.79 | 25.57 | 57.5 | 0 | 0 | 2.75 | 3.23 |
| 19:10 | 3 | 19.6 | 55 | 56,583 | 0 | 0 | 2.88 | 18.03 | 62.74 | 0 | 0 | 1.74 | 1.79 |
| 19:07 | 3 | 19.7 | 54 | 56,643 | 0.08 | 0 | 2.85 | 33.62 | 48.78 | 0 | 0 | 1.75 | 1.78 |
| 19:01 | 3 | 20 | 54 | 56,503 | 0 | 0 | 2.62 | 24.4 | 58.37 | 0 | 0 | 1.79 | 2.46 |
| 19:00 | 3 | 20 | 54 | 56,501 | 0 | 0 | 2.61 | 14.55 | 61.92 | 0 | 0 | 2.29 | 2.46 |
| 18:59 | 3 | 20.1 | 54 | 56,505 | 0 | 0.26 | 2.79 | 20.88 | 61.25 | 0 | 0 | 1.79 | 1.97 |
| 18:58 | 3 | 20.2 | 53 | 56,498 | 0.01 | 0.39 | 2.96 | 25.42 | 58.92 | 0 | 0 | 1.8 | 2.45 |
| 18:57 | 3 | 20.3 | 53 | 56,479 | 0 | 0 | 2.5 | 15.93 | 67.99 | 0 | 0 | 1.81 | 1.99 |
| 18:56 | 3 | 20.3 | 53 | 56,463 | 0 | 0.36 | 2.52 | 28.46 | 59.96 | 0 | 0 | 1.81 | 1.99 |
| 18:55 | 3 | 20.4 | 53 | 56,466 | 0 | 3.29 | 2.28 | 41.91 | 45.32 | 0 | 0 | 1.82 | 2 |
| 18:54 | 3 | 20.5 | 53 | 56,467 | 0 | 0.78 | 1.28 | 33.11 | 64.83 | 0 | 0 | 1.83 | 2.42 |